FW7989 Weather Reports


Display with metric or nautical units.
time (UTC)temp
F
wind
direction
speed
MPH
gust
MPH
rain 1hr
in
rain 24hr
in
rain mn
in
humidity
%
barometer
mb
20260509123136 68 32 2.0 9.0 0.00 0.00 0.00 52 1017.0
20260509122557 68 41 4.0 9.0 0.00 0.00 0.00 53 1017.1
20260509122058 68 49 3.0 8.0 0.00 0.00 0.00 49 1017.1
20260509121602 68 91 3.0 9.0 0.00 0.00 0.00 50 1017.1
20260509121058 68 83 5.0 9.0 0.00 0.00 0.00 51 1017.2
20260509120559 68 45 3.0 10.0 0.00 0.00 0.00 53 1017.1
20260509120101 68 19 4.0 13.0 0.00 0.00 0.00 53 1017.2
20260509115558 68 46 3.0 13.0 0.00 0.00 0.00 56 1017.2
20260509115058 68 69 7.0 13.0 0.00 0.00 0.00 52 1017.3
20260509114601 68 67 4.0 10.0 0.00 0.00 0.00 51 1017.3
20260509114058 68 69 5.0 10.0 0.00 0.00 0.00 51 1017.3
20260509113601 68 61 4.0 9.0 0.00 0.00 0.00 56 1017.5
20260509113106 68 344 3.0 9.0 0.00 0.00 0.00 57 1017.4
20260509112558 68 67 3.0 11.0 0.00 0.00 0.00 53 1017.5
20260509112058 68 159 3.0 11.0 0.00 0.00 0.00 54 1017.4
20260509111601 68 47 4.0 11.0 0.00 0.00 0.00 55 1017.6
20260509111058 68 142 4.0 11.0 0.00 0.00 0.00 59 1017.6
20260509110557 68 119 4.0 11.0 0.00 0.00 0.00 51 1017.7
20260509110100 67 140 3.0 9.0 0.00 0.00 0.00 54 1017.7
20260509105559 67 96 3.0 9.0 0.00 0.00 0.00 56 1017.7
20260509105059 67 104 3.0 9.0 0.00 0.00 0.00 52 1017.8
20260509104557 67 52 4.0 9.0 0.00 0.00 0.00 53 1017.7
20260509104059 67 76 3.0 9.0 0.00 0.00 0.00 55 1017.7
20260509103558 68 44 1.0 8.0 0.00 0.00 0.00 56 1017.8
20260509103103 67 142 3.0 9.0 0.00 0.00 0.00 55 1017.7
20260509102558 67 49 4.0 12.0 0.00 0.00 0.00 58 1017.8
20260509102059 66 94 4.0 12.0 0.00 0.00 0.00 56 1017.8
20260509101603 66 50 6.0 12.0 0.00 0.00 0.00 55 1017.7
20260509101059 66 84 3.0 10.0 0.00 0.00 0.00 56 1017.9
20260509100559 67 113 6.0 10.0 0.00 0.00 0.00 56 1017.8
20260509100101 67 116 2.0 6.0 0.00 0.00 0.00 59 1017.8
20260509095558 66 115 2.0 4.0 0.00 0.00 0.00 58 1017.7
20260509095058 66 25 1.0 6.0 0.00 0.00 0.00 61 1017.7
20260509094559 65 57 1.0 6.0 0.00 0.00 0.00 63 1017.8
20260509094058 65 329 2.0 6.0 0.00 0.00 0.00 63 1017.9
20260509093559 64 347 2.0 9.0 0.00 0.00 0.00 65 1017.8
20260509093100 64 38 3.0 9.0 0.00 0.00 0.00 61 1017.9
20260509092559 64 106 3.0 8.0 0.00 0.00 0.00 61 1017.9
20260509092103 64 26 4.0 8.0 0.00 0.00 0.00 60 1017.9
20260509091557 64 360 4.0 8.0 0.00 0.00 0.00 61 1017.8
20260509091059 64 76 3.0 8.0 0.00 0.00 0.00 63 1017.8
20260509090602 63 45 3.0 8.0 0.00 0.00 0.00 64 1017.9
20260509090101 62 33 3.0 8.0 0.00 0.00 0.00 66 1018.0
20260509085558 62 69 3.0 9.0 0.00 0.00 0.00 65 1018.0
20260509085058 61 117 3.0 9.0 0.00 0.00 0.00 66 1018.0
20260509084606 61 60 3.0 9.0 0.00 0.00 0.00 65 1017.9
20260509084101 61 98 1.0 8.0 0.00 0.00 0.00 66 1018.1
20260509083557 61 9 3.0 8.0 0.00 0.00 0.00 65 1018.0
20260509083101 61 24 3.0 8.0 0.00 0.00 0.00 68 1018.0
20260509082559 60 63 2.0 7.0 0.00 0.00 0.00 69 1018.0
20260509082059 60 82 2.0 7.0 0.00 0.00 0.00 70 1018.0
20260509081601 60 43 2.0 7.0 0.00 0.00 0.00 68 1018.0
20260509081059 59 22 3.0 7.0 0.00 0.00 0.00 68 1018.1
20260509080559 59 76 4.0 9.0 0.00 0.00 0.00 68 1018.1
20260509080101 59 53 4.0 9.0 0.00 0.00 0.00 69 1018.1
20260509075558 58 81 3.0 9.0 0.00 0.00 0.00 69 1018.0
20260509075059 58 36 3.0 7.0 0.00 0.00 0.00 70 1018.0
20260509074609 58 78 3.0 8.0 0.00 0.00 0.00 68 1018.0
20260509074059 57 92 3.0 8.0 0.00 0.00 0.00 70 1018.0
20260509073602 57 38 4.0 8.0 0.00 0.00 0.00 69 1018.0
20260509073100 58 84 2.0 10.0 0.00 0.00 0.00 70 1018.0
20260509072601 57 61 3.0 10.0 0.00 0.00 0.00 70 1018.0
20260509072058 58 40 3.0 7.0 0.00 0.00 0.00 67 1017.9
20260509071614 57 360 2.0 6.0 0.00 0.00 0.00 69 1017.9
20260509071059 57 94 3.0 6.0 0.00 0.00 0.00 68 1017.9
20260509070559 57 342 2.0 5.0 0.00 0.00 0.00 69 1017.9
20260509070058 56 61 2.0 5.0 0.00 0.00 0.00 71 1017.9
20260509065558 56 93 2.0 7.0 0.00 0.00 0.00 70 1017.9
20260509065058 56 61 4.0 8.0 0.00 0.00 0.00 70 1017.7
20260509064603 56 65 4.0 8.0 0.00 0.00 0.00 70 1017.8
20260509064059 55 72 3.0 8.0 0.00 0.00 0.00 72 1017.9
20260509063601 55 25 3.0 8.0 0.00 0.00 0.00 71 1017.8
20260509063059 55 66 3.0 8.0 0.00 0.00 0.00 73 1017.7
20260509062559 54 27 2.0 5.0 0.00 0.00 0.00 73 1017.8
20260509062058 54 44 2.0 6.0 0.00 0.00 0.00 75 1017.8
20260509061603 53 46 3.0 9.0 0.00 0.00 0.00 74 1017.7
20260509061057 53 90 3.0 9.0 0.00 0.00 0.00 74 1017.7
20260509060558 53 46 4.0 9.0 0.00 0.00 0.00 75 1017.6
20260509055559 52 41 4.0 9.0 0.00 0.00 0.00 76 1017.6
20260509055101 51 75 4.0 10.0 0.00 0.00 0.00 77 1017.5
20260509054610 51 53 4.0 10.0 0.00 0.00 0.00 78 1017.4
20260509054058 51 71 4.0 9.0 0.00 0.00 0.00 78 1017.5
20260509053558 50 62 3.0 9.0 0.00 0.00 0.00 78 1017.4
20260509053104 50 28 3.0 9.0 0.00 0.00 0.00 78 1017.5
20260509052559 50 62 4.0 9.0 0.00 0.00 0.00 78 1017.4
20260509052058 50 76 3.0 8.0 0.00 0.00 0.00 78 1017.3
20260509051604 49 19 3.0 8.0 0.00 0.00 0.00 79 1017.4
20260509051059 49 62 4.0 8.0 0.00 0.00 0.00 79 1017.3
20260509050557 49 46 4.0 6.0 0.00 0.00 0.00 80 1017.4
20260509050100 48 42 3.0 6.0 0.00 0.00 0.00 80 1017.3
20260509045558 48 40 2.0 5.0 0.00 0.00 0.00 81 1017.4
20260509045058 48 40 3.0 6.0 0.00 0.00 0.00 81 1017.4
20260509044600 47 54 3.0 6.0 0.00 0.00 0.00 82 1017.3
20260509044059 46 58 3.0 5.0 0.00 0.00 0.00 84 1017.4
20260509043558 45 34 2.0 5.0 0.00 0.00 0.00 82 1017.5
20260509043102 46 41 2.0 4.0 0.00 0.00 0.00 79 1017.3
20260509042558 46 0 0.0 2.0 0.00 0.00 0.00 77 1017.4
20260509042058 47 0 0.0 3.0 0.00 0.00 0.00 74 1017.3
20260509041600 49 0 0.0 4.0 0.00 0.00 0.00 72 1017.5
20260509041100 49 61 2.0 7.0 0.00 0.00 0.00 76 1017.4
20260509040558 50 48 3.0 7.0 0.00 0.00 0.00 75 1017.3
20260509040100 50 71 3.0 8.0 0.00 0.00 0.00 75 1017.4
20260509035558 50 62 3.0 8.0 0.00 0.00 0.00 75 1017.3
20260509035059 50 67 3.0 8.0 0.00 0.00 0.00 75 1017.3
20260509034558 50 62 4.0 8.0 0.00 0.00 0.00 75 1017.4
20260509034100 49 55 3.0 7.0 0.00 0.00 0.00 75 1017.3
20260509033559 50 74 3.0 5.0 0.00 0.00 0.00 75 1017.3
20260509033100 50 47 3.0 6.0 0.00 0.00 0.00 74 1017.3
20260509032559 50 72 3.0 9.0 0.00 0.00 0.00 74 1017.3
20260509032102 50 75 5.0 9.0 0.00 0.00 0.00 74 1017.3
20260509031623 50 51 5.0 9.0 0.00 0.00 0.00 75 1017.4
20260509031058 50 71 5.0 9.0 0.00 0.00 0.00 76 1017.3
20260509030559 49 46 4.0 9.0 0.00 0.00 0.00 76 1017.4
20260509025602 48 69 3.0 7.0 0.00 0.00 0.00 80 1017.4
20260509025058 48 53 3.0 5.0 0.00 0.00 0.00 81 1017.4
20260509024604 47 48 2.0 6.0 0.00 0.00 0.00 83 1017.5
20260509024100 47 51 3.0 6.0 0.00 0.00 0.00 84 1017.5
20260509023558 46 61 3.0 8.0 0.00 0.00 0.00 86 1017.5
20260509023102 44 68 4.0 8.0 0.00 0.00 0.00 88 1017.4
20260509022559 44 59 2.0 7.0 0.00 0.00 0.00 87 1017.5
20260509022100 44 40 3.0 7.0 0.00 0.00 0.00 85 1017.5
20260509021559 44 48 1.0 4.0 0.00 0.00 0.00 84 1017.5
20260509021059 45 175 0.0 1.0 0.00 0.00 0.00 84 1017.5
20260509020558 45 0 0.0 1.0 0.00 0.00 0.00 84 1017.6
20260509020058 45 0 0.0 1.0 0.00 0.00 0.00 84 1017.5
20260509015558 46 0 0.0 0.0 0.00 0.00 0.00 83 1017.6
20260509015059 46 0 0.0 0.0 0.00 0.00 0.00 82 1017.5
20260509014600 47 0 0.0 0.0 0.00 0.00 0.00 81 1017.5
20260509014058 47 0 0.0 1.0 0.00 0.00 0.00 79 1017.6
20260509013558 48 0 0.0 1.0 0.00 0.00 0.00 78 1017.6
20260509013110 48 0 0.0 2.0 0.00 0.00 0.00 77 1017.6
20260509012558 49 0 0.0 2.0 0.00 0.00 0.00 77 1017.6
20260509012058 50 184 0.0 3.0 0.00 0.00 0.00 75 1017.5
20260509011601 51 184 0.0 4.0 0.00 0.00 0.00 74 1017.5
20260509011058 51 0 1.0 5.0 0.00 0.00 0.00 74 1017.5
20260509010558 52 0 0.0 5.0 0.00 0.00 0.00 73 1017.6
20260509010056 52 48 3.0 7.0 0.00 0.00 0.00 74 1017.5
20260509005558 52 64 3.0 7.0 0.00 0.00 0.00 74 1017.5
20260509005058 52 47 3.0 5.0 0.00 0.00 0.00 74 1017.5
20260509004557 52 38 2.0 5.0 0.00 0.00 0.00 74 1017.5
20260509004059 52 51 3.0 5.0 0.00 0.00 0.00 75 1017.4
20260509003559 51 51 2.0 5.0 0.00 0.00 0.00 75 1017.5
20260509003100 51 51 3.0 6.0 0.00 0.00 0.00 75 1017.5
20260509002601 52 63 2.0 6.0 0.00 0.00 0.00 75 1017.5
20260509002058 52 51 3.0 6.0 0.00 0.00 0.00 75 1017.5
20260509001600 52 42 3.0 6.0 0.00 0.00 0.00 76 1017.5
20260509001058 52 49 3.0 6.0 0.00 0.00 0.00 75 1017.7
20260509000558 52 57 3.0 6.0 0.00 0.00 0.00 75 1017.6
20260509000109 52 28 3.0 6.0 0.00 0.00 0.00 76 1017.6
20260508235558 52 56 3.0 6.0 0.00 0.00 0.00 76 1017.6
20260508235103 52 45 4.0 6.0 0.00 0.00 0.00 76 1017.5
20260508234609 51 51 3.0 6.0 0.00 0.00 0.00 77 1017.6
20260508234100 51 45 3.0 6.0 0.00 0.00 0.00 78 1017.7
20260508233558 50 69 3.0 6.0 0.00 0.00 0.00 80 1017.6
20260508233101 49 56 3.0 5.0 0.00 0.00 0.00 82 1017.6
20260508232559 48 42 3.0 5.0 0.00 0.00 0.00 84 1017.6
20260508232058 48 42 2.0 4.0 0.00 0.00 0.00 82 1017.5
20260508231559 48 0 0.0 2.0 0.00 0.00 0.00 80 1017.6
20260508231059 49 0 0.0 2.0 0.00 0.00 0.00 79 1017.7
20260508230559 49 0 0.0 2.0 0.00 0.00 0.00 77 1017.6
20260508230104 50 41 0.0 3.0 0.00 0.00 0.00 79 1017.5
20260508225558 50 45 1.0 3.0 0.00 0.00 0.00 79 1017.6
20260508225059 50 60 1.0 4.0 0.00 0.00 0.00 79 1017.8
20260508224559 50 57 1.0 4.0 0.00 0.00 0.00 79 1017.7
20260508224058 50 63 0.0 0.0 0.00 0.00 0.00 79 1017.6
20260508223558 49 0 0.0 0.0 0.00 0.00 0.00 80 1017.7
20260508223058 49 0 0.0 0.0 0.00 0.00 0.00 80 1017.8
20260508222558 49 0 0.0 0.0 0.00 0.00 0.00 79 1017.7
20260508222059 49 0 0.0 0.0 0.00 0.00 0.00 79 1017.8
20260508221600 50 0 0.0 0.0 0.00 0.00 0.00 79 1017.7
20260508221059 50 0 0.0 0.0 0.00 0.00 0.00 78 1017.7
20260508220601 51 0 0.0 0.0 0.00 0.00 0.00 76 1017.8
20260508220057 51 0 0.0 0.0 0.00 0.00 0.00 75 1017.8
20260508215558 52 0 0.0 0.0 0.00 0.00 0.00 74 1017.8
20260508215059 53 0 0.0 0.0 0.00 0.00 0.00 70 1017.8
20260508214611 54 0 0.0 2.0 0.00 0.00 0.00 71 1017.8
20260508214059 54 0 0.0 2.0 0.00 0.00 0.00 71 1017.7
20260508213600 54 0 1.0 2.0 0.00 0.00 0.00 70 1017.6
20260508213116 54 96 1.0 2.0 0.00 0.00 0.00 69 1017.6
20260508212603 55 96 1.0 2.0 0.00 0.00 0.00 69 1017.5
20260508212058 55 96 1.0 2.0 0.00 0.00 0.00 69 1017.5
20260508211601 55 116 1.0 2.0 0.00 0.00 0.00 69 1017.5
20260508211103 55 104 1.0 2.0 0.00 0.00 0.00 69 1017.5
20260508210602 55 118 1.0 2.0 0.00 0.00 0.00 69 1017.5
20260508210059 56 110 1.0 2.0 0.00 0.00 0.00 68 1017.5
20260508205558 56 0 0.0 0.0 0.00 0.00 0.00 68 1017.4
20260508205059 56 0 0.0 0.0 0.00 0.00 0.00 67 1017.5
20260508204619 57 0 0.0 2.0 0.00 0.00 0.00 67 1017.5
20260508204100 57 0 0.0 2.0 0.00 0.00 0.00 66 1017.4
20260508203556 57 0 1.0 3.0 0.00 0.00 0.00 66 1017.4
20260508203102 57 111 1.0 6.0 0.00 0.00 0.00 66 1017.3
20260508202559 58 124 1.0 6.0 0.00 0.00 0.00 66 1017.3
20260508202059 58 119 2.0 6.0 0.00 0.00 0.00 65 1017.3
20260508201610 58 156 2.0 6.0 0.00 0.00 0.00 65 1017.2
20260508201104 58 101 1.0 6.0 0.00 0.00 0.00 65 1017.1
20260508200558 58 119 2.0 6.0 0.00 0.00 0.00 65 1017.0
20260508200135 58 110 1.0 4.0 0.00 0.00 0.00 65 1017.1
20260508195559 59 117 1.0 6.0 0.00 0.00 0.00 65 1016.9
20260508195059 59 153 1.0 7.0 0.00 0.00 0.00 66 1016.9
20260508194559 59 169 2.0 7.0 0.00 0.00 0.00 66 1016.8
20260508194058 59 137 2.0 6.0 0.00 0.00 0.00 66 1016.6
20260508193559 60 128 1.0 6.0 0.00 0.00 0.00 66 1016.6
20260508193058 60 118 2.0 6.0 0.00 0.00 0.00 65 1016.5
20260508192559 60 126 1.0 4.0 0.00 0.00 0.00 65 1016.5
20260508192059 60 0 0.0 4.0 0.00 0.00 0.00 64 1016.4
20260508191559 61 151 1.0 3.0 0.00 0.00 0.00 64 1016.3
20260508191058 61 155 1.0 4.0 0.00 0.00 0.00 64 1016.2
20260508190600 61 140 1.0 4.0 0.00 0.00 0.00 63 1016.2
20260508190105 62 152 1.0 4.0 0.00 0.00 0.00 63 1016.2
20260508185558 62 0 0.0 4.0 0.00 0.00 0.00 62 1016.1
20260508185058 62 0 0.0 5.0 0.00 0.00 0.00 62 1016.1
20260508184558 63 191 2.0 5.0 0.00 0.00 0.00 62 1016.1
20260508184100 63 127 1.0 5.0 0.00 0.00 0.00 63 1016.0
20260508183559 63 155 2.0 5.0 0.00 0.00 0.00 62 1016.0
20260508183105 63 182 2.0 6.0 0.00 0.00 0.00 62 1015.9
20260508182559 63 175 2.0 6.0 0.00 0.00 0.00 60 1015.9
20260508182058 63 171 2.0 4.0 0.00 0.00 0.00 61 1015.9
20260508181613 64 193 3.0 4.0 0.00 0.00 0.00 61 1015.8
20260508181100 64 211 1.0 9.0 0.00 0.00 0.00 58 1015.7
20260508180602 64 194 2.0 9.0 0.00 0.00 0.00 59 1015.7
20260508180115 64 177 2.0 6.0 0.00 0.00 0.00 56 1015.5
20260508175559 65 197 3.0 6.0 0.00 0.00 0.00 57 1015.6
20260508175058 65 228 3.0 8.0 0.00 0.00 0.00 55 1015.5
20260508174607 65 210 4.0 9.0 0.00 0.00 0.00 54 1015.3
20260508174101 65 184 4.0 9.0 0.00 0.00 0.00 55 1015.3
20260508173559 65 181 4.0 8.0 0.00 0.00 0.00 53 1015.3
20260508173058 66 178 3.0 8.0 0.00 0.00 0.00 54 1015.3
20260508172559 66 209 2.0 8.0 0.00 0.00 0.00 51 1015.2
20260508172059 66 175 3.0 8.0 0.00 0.00 0.00 54 1015.2
20260508171557 66 184 5.0 8.0 0.00 0.00 0.00 51 1015.2
20260508171059 67 188 4.0 10.0 0.00 0.00 0.00 54 1015.1
20260508170559 67 203 5.0 11.0 0.00 0.00 0.00 49 1015.2
20260508170058 67 192 5.0 12.0 0.00 0.00 0.00 48 1015.1
20260508165558 67 185 6.0 12.0 0.00 0.00 0.00 51 1015.1
20260508165059 67 178 5.0 11.0 0.00 0.00 0.00 52 1015.0
20260508164558 67 178 4.0 10.0 0.00 0.00 0.00 50 1015.1
20260508164059 67 169 4.0 11.0 0.00 0.00 0.00 50 1015.0
20260508163602 67 203 3.0 11.0 0.00 0.00 0.00 50 1015.1
20260508163057 68 192 5.0 11.0 0.00 0.00 0.00 49 1014.9
20260508162558 68 210 5.0 11.0 0.00 0.00 0.00 49 1015.0
20260508162059 68 190 4.0 12.0 0.00 0.00 0.00 51 1014.9
20260508161602 68 162 4.0 12.0 0.00 0.00 0.00 52 1014.9
20260508161058 67 186 4.0 10.0 0.00 0.00 0.00 49 1014.9
20260508160559 67 192 5.0 15.0 0.00 0.00 0.00 50 1015.0
20260508160057 67 191 4.0 15.0 0.00 0.00 0.00 51 1015.0
20260508155558 67 185 6.0 15.0 0.00 0.00 0.00 48 1015.0
20260508155058 67 173 7.0 14.0 0.00 0.00 0.00 48 1015.1
20260508154558 67 197 6.0 12.0 0.00 0.00 0.00 50 1015.1
20260508154104 68 195 5.0 12.0 0.00 0.00 0.00 50 1015.0
20260508153559 68 192 5.0 12.0 0.00 0.00 0.00 50 1015.1
20260508153100 69 202 6.0 15.0 0.00 0.00 0.00 49 1015.0
20260508152603 69 142 4.0 16.0 0.00 0.00 0.00 49 1015.0
20260508152058 69 182 4.0 16.0 0.00 0.00 0.00 47 1015.2
20260508151606 69 217 6.0 15.0 0.00 0.00 0.00 48 1015.2
20260508151059 68 161 5.0 15.0 0.00 0.00 0.00 51 1015.3
20260508150558 69 186 6.0 15.0 0.00 0.00 0.00 46 1015.1
20260508150058 69 157 6.0 15.0 0.00 0.00 0.00 49 1015.2
20260508145558 69 177 7.0 14.0 0.00 0.00 0.00 49 1015.2
20260508145058 69 229 6.0 15.0 0.00 0.00 0.00 51 1015.3
20260508144600 69 158 7.0 15.0 0.00 0.00 0.00 50 1015.3
20260508144058 69 185 6.0 13.0 0.00 0.00 0.00 51 1015.3
20260508143558 68 180 4.0 14.0 0.00 0.00 0.00 53 1015.2
20260508143100 68 217 7.0 14.0 0.00 0.00 0.00 52 1015.2
20260508142558 68 217 8.0 14.0 0.00 0.00 0.00 50 1015.2
20260508142059 68 205 4.0 12.0 0.00 0.00 0.00 54 1015.3
20260508141613 67 127 3.0 11.0 0.00 0.00 0.00 54 1015.2
20260508141059 67 197 5.0 15.0 0.00 0.00 0.00 54 1015.2
20260508140603 68 213 6.0 15.0 0.00 0.00 0.00 53 1015.2
20260508140114 68 151 7.0 13.0 0.00 0.00 0.00 54 1015.1
20260508135601 68 206 5.0 13.0 0.00 0.00 0.00 55 1015.2
20260508135059 68 201 6.0 13.0 0.00 0.00 0.00 53 1015.1
20260508134559 68 192 5.0 12.0 0.00 0.00 0.00 54 1015.1
20260508134058 68 159 5.0 12.0 0.00 0.00 0.00 55 1015.1
20260508133558 68 157 5.0 9.0 0.00 0.00 0.00 54 1015.0
20260508133103 68 180 3.0 12.0 0.00 0.00 0.00 51 1015.0
20260508132558 68 141 2.0 16.0 0.00 0.00 0.00 58 1015.0
20260508132058 68 163 5.0 16.0 0.00 0.00 0.00 52 1015.0
20260508131606 68 163 5.0 14.0 0.00 0.00 0.00 55 1015.0
20260508131059 67 148 5.0 14.0 0.00 0.00 0.00 58 1015.0
20260508130602 66 226 4.0 11.0 0.00 0.00 0.00 58 1015.2
20260508130058 66 198 5.0 13.0 0.00 0.00 0.00 59 1015.2
20260508125559 66 203 5.0 15.0 0.00 0.00 0.00 58 1015.2
20260508125059 66 181 6.0 16.0 0.00 0.00 0.00 57 1015.3
20260508124558 67 139 7.0 16.0 0.00 0.00 0.00 54 1015.2
20260508124058 67 117 5.0 14.0 0.00 0.00 0.00 58 1015.1
20260508123559 67 209 7.0 14.0 0.00 0.00 0.00 60 1015.2